This demonstration page uses our WeatherBlox Daily Observations layout. Learn more.

Left ArrowRight Arrow

Hourly Observations for June 19, 2015

Temp ( °F °C ) Dew Point ( °F °C ) Humidity (%) Winds ( mph kmh ) Pressure ( in mb ) Visibility ( mi km ) Precip ( " mm )
12:53 am 00:53 Clear 58 14.4 54 12.2 87 87 E 6 9 29.79 1009 10 16 0.00 0.00
1:53 am 01:53 Clear 57 13.9 54 12.2 90 90 ENE 12 19 29.79 1009 10 16 0.00 0.00
2:53 am 02:53 Clear 56 13.3 53 11.7 90 90 ENE 13 20 29.78 1008 10 16 0.00 0.00
3:53 am 03:53 Clear 55 12.8 53 11.7 93 93 ENE 10 17 29.77 1008 10 16 0.00 0.00
4:53 am 04:53 Clear 53 11.7 52 11.1 96 96 SE 5 7 29.79 1009 10 16 0.00 0.00
5:53 am 05:53 Sunny 51 10.6 49 9.4 92 92 SSW 6 9 29.80 1009 10 16 0.00 0.00
6:23 am 06:23 Partly Cloudy 51 10.6 48 8.9 89 89 SW 3 6 29.80 1009 10 16 0.00 0.00
6:27 am 06:27 Mostly Cloudy 52 11 48 9 88 88 SW 3 6 29.83 1010 10 16 0.00 0.00
6:53 am 06:53 Mostly Cloudy 52 11.1 50 10 93 93 Calm 29.81 1010 10 16 0.00 0.00
7:13 am 07:13 Partly Cloudy 53 11.7 50 10 89 89 Calm 29.83 1010 10 16 0.00 0.00
7:53 am 07:53 Sunny 56 13.3 51 10.6 84 84 Calm 29.80 1009 10 16 0.00 0.00
8:53 am 08:53 Sunny 61 16.1 53 11.7 75 75 W 6 9 29.80 1009 10 16 0.00 0.00
9:53 am 09:53 Sunny 67 19.4 55 12.8 66 66 WSW 9 15 29.80 1009 10 16 0.00 0.00
10:53 am 10:53 Sunny 70 21.1 55 12.8 59 59 SW 10 17 29.78 1009 10 16 0.00 0.00
11:53 am 11:53 Sunny 70 21.1 55 12.8 59 59 SW 13 20 29.80 1009 10 16 0.00 0.00
12:53 pm 12:53 Sunny 75 23.9 52 11.1 45 45 WSW 14 22 29.78 1009 10 16 0.00 0.00
1:53 pm 13:53 Sunny 80 26.7 43 6.1 27 27 SW 17 28 29.75 1008 10 16 0.00 0.00
2:10 pm 14:10 Sunny with Nearby Thunderstorms 82 28 46 8 28 28 SW 13 20 29.62 1003 10 16 0.00 0.00
2:23 pm 14:23 Mostly Sunny 80 26.7 41 5 25 25 NW 18 30 29.62 1003 10 16 0.00 0.00
2:53 pm 14:53 Mostly Sunny 81 27.2 44 6.7 27 27 SW 7 11 29.72 1006 10 16 0.00 0.00
3:40 pm 15:40 Partly Cloudy 82 28 39 4 21 21 W 13 20 29.56 1001 10 16 0.00 0.00
3:53 pm 15:53 Mostly Sunny 84 28.9 39 3.9 20 20 SSW 12 19 29.69 1006 10 16 0.00 0.00
4:53 pm 16:53 Sunny 86 30 37 2.8 18 18 WSW 18 30 29.68 1005 10 16 0.00 0.00
5:53 pm 17:53 Mostly Cloudy 82 27.8 37 2.8 20 20 WSW 17 28 29.69 1006 10 16 0.00 0.00
6:53 pm 18:53 Mostly Sunny 80 26.7 44 6.7 28 28 NNE 13 20 29.70 1006 10 16 0.00 0.00
7:03 pm 19:03 Mostly Sunny 79 26 46 8 32 32 NNE 9 15 29.56 1001 10 16 0.00 0.00
7:53 pm 19:53 Sunny 73 22.8 48 8.9 41 41 NNE 22 35 29.77 1008 10 16 0.00 0.00
8:53 pm 20:53 Mostly Sunny 68 20 48 8.9 49 49 ENE 10 17 29.81 1010 10 16 0.00 0.00
9:53 pm 21:53 Mostly Clear 63 17.2 47 8.3 56 56 E 3 6 29.83 1010 10 16 0.00 0.00
10:53 pm 22:53 Clear 57 13.9 47 8.3 69 69 S 7 11 29.85 1011 10 16 0.00 0.00
11:53 pm 23:53 Clear 57 13.9 46 7.8 67 67 SE 3 6 29.85 1011 10 16 0.00 0.00

Powered by AerisWeather